TimeEST,TemperatureF,Dew PointF,Humidity,Sea Level PressureIn,VisibilityMPH,Wind Direction,Wind SpeedMPH,Gust SpeedMPH,PrecipitationIn,Events,Conditions,WindDirDegrees,DateUTC
12:53 AM,-2.0,-11.0,66,29.83,10.0,WNW,8.1,-,N/A,,Clear,300,2014-01-23 05:53:00
1:53 AM,-2.9,-11.9,65,29.84,10.0,WNW,9.2,-,N/A,,Clear,290,2014-01-23 06:53:00
2:53 AM,-4.0,-13.0,65,29.85,10.0,WNW,8.1,-,N/A,,Clear,290,2014-01-23 07:53:00
3:53 AM,-5.1,-14.1,65,29.86,10.0,WNW,13.8,21.9,N/A,,Clear,300,2014-01-23 08:53:00
4:53 AM,-4.0,-14.1,62,29.85,10.0,NW,10.4,-,N/A,,Clear,310,2014-01-23 09:53:00
5:53 AM,-4.0,-14.1,62,29.87,10.0,WNW,12.7,18.4,N/A,,Clear,300,2014-01-23 10:53:00
6:53 AM,-4.0,-14.1,62,29.88,10.0,NW,15.0,21.9,N/A,,Clear,310,2014-01-23 11:53:00
7:53 AM,-4.0,-14.1,62,29.91,10.0,WNW,9.2,-,N/A,,Clear,300,2014-01-23 12:53:00
8:53 AM,-0.9,-11.9,60,29.92,10.0,WNW,9.2,16.1,N/A,,Clear,300,2014-01-23 13:53:00
9:53 AM,1.9,-9.9,58,29.94,10.0,WNW,10.4,-,N/A,,Clear,290,2014-01-23 14:53:00
10:53 AM,5.0,-8.0,55,29.92,10.0,WNW,12.7,18.4,N/A,,Clear,300,2014-01-23 15:53:00
11:53 AM,8.1,-7.1,50,29.90,10.0,WNW,10.4,20.7,N/A,,Clear,300,2014-01-23 16:53:00
12:53 PM,10.9,-5.1,49,29.89,10.0,West,9.2,18.4,N/A,,Clear,280,2014-01-23 17:53:00
1:53 PM,10.9,-5.1,49,29.88,10.0,West,11.5,18.4,N/A,,Clear,280,2014-01-23 18:53:00
2:53 PM,12.0,-5.1,46,29.90,10.0,West,8.1,-,N/A,,Clear,270,2014-01-23 19:53:00
3:53 PM,10.9,-5.1,49,29.92,10.0,WNW,8.1,17.3,N/A,,Clear,300,2014-01-23 20:53:00
4:53 PM,10.0,-5.1,51,29.94,10.0,WNW,9.2,-,N/A,,Clear,290,2014-01-23 21:53:00
5:53 PM,8.1,-5.1,55,29.96,10.0,WNW,12.7,24.2,N/A,,Clear,290,2014-01-23 22:53:00
6:53 PM,7.0,-6.0,55,29.99,10.0,WNW,9.2,18.4,N/A,,Clear,290,2014-01-23 23:53:00
7:53 PM,5.0,-6.0,61,30.00,10.0,WNW,11.5,20.7,N/A,,Clear,290,2014-01-24 00:53:00
8:53 PM,3.9,-7.1,60,30.01,10.0,West,11.5,20.7,N/A,,Clear,280,2014-01-24 01:53:00
9:53 PM,1.9,-8.0,63,30.02,10.0,WNW,15.0,24.2,N/A,,Clear,290,2014-01-24 02:53:00
10:53 PM,1.0,-9.0,63,30.04,10.0,WNW,9.2,19.6,N/A,,Clear,290,2014-01-24 03:53:00
11:53 PM,1.0,-9.9,60,30.04,10.0,WNW,11.5,-,N/A,,Clear,300,2014-01-24 04:53:00